STARLINK-3158, 49432

Orbit data source: Space-Track

STARLINK-3158, 49432 is a payload satellite owned by SpaceX/Seattle (US) in LEO that was launched on Sat, 13 Nov 2021 UTC via an FALCON 9 launch vehicle from the Air Force Eastern Test Range (AFETR). Payload-class satellites include a variety of spacecraft equipped with specific instruments for various scientific and technological missions. These include communications satellites like Starlink; space stations such as the ISS; scientific satellites like the Hubble; Earth observation satellites from companies like Planet Labs, Umbra, and HawkEye 360; GPS; miniature CubeSats for education and research; and military/defense satellites.

Loading next visibility...
Identifier
49432, 2021-104AA
Orbit
LEO
Country
Flag of USUS
Related business
Manufacturer
SpaceX/Seattle
Mission
Operational Commercial Communications
Bus & Motor
STARLINK, Unknown motor
Mass
290 kg wet, ~270 kg dry
Launch date (UTC)
2021-11-13 (5 years ago)
Launch vehicle
FALCON 9
Launch site
Air Force Eastern Test Range (AFETR)
Object type
Payload
Rocket body
Debris
Shape & HBR
Box + 1 Pan, 10.1 m
Radar Cross Section
13.562 m², Large (>1 m²)

Expand to show TLE details & history
Last TLE update: 1 week ago

TLE from 1 week ago
0 STARLINK-3158
1 49432U 21104AA  26154.28128214 -.00005181  00000-0 -30795-3 0  9990
2 49432  53.1946 194.8717 0002379 127.5618 232.5590 15.08799947251698
Epoch: 2026-06-03T06:45Z
TLE epoch observation values (Epoch: 2026-06-03T06:45:02.776Z)
Latitude
-0.00006°
Longitude
-158.13206°
Altitude
541.762 km
Speed
7.592 km/s
True Right ascension
12h 59m 29s
True Declination
0° 00' 00"
Sunlit
Object was in full shadow at epoch
Visualization orbit readout
Latitude
Unknown
Longitude
Unknown
Altitude
Unknown
Speed
Unknown
Apparent Right ascension
Unknown
Apparent Declination
Unknown
Sunlit
N/A
Visualization observer readout
Local Sidereal Time
14:52:00
Azimuth
Unknown
Elevation
Unknown
Doppler factor
Unknown
Orbital elements
Apogee altitude
541.76 km
Perigee altitude
538.469 km
Semi-major axis
6,918.251 km
Eccentricity
0.00024
Inclination
53.1946°
RAAN
194.8717°
Arg. of periapsis
127.5618°
True anomaly
232.53736°
Mean anomaly
232.559°
Eccentric anomaly
232.54818°
Mean motion
3.7718 °/min
Orbital period
95.45 mins
BSTAR
-0.00030795
Loading maneuver chart data...
Computing Atmospheric mass density...
Loading historical data...
Loading historical data...
Loading historical data...
Loading historical data...
Loading historical data...
Loading historical data...
Loading historical data...

Documentation

Showing up to 5 results
|